Regional Weather Roundup
Issued by NWS

Home | Current Version | Previous Version | Text Only | Print | Product List | Glossary On
Versions: 1 2 3 4 5 6 7 8 9 10 11 12 13 14 15 16 17 18 19 20 21 22 23 24 25 26 27 28 29 30 31 32 33 34 35 36 37 38 39 40 41 42 43 44 45 46 47 48 49 50
000
ASCA44 KEWX 050520
RWRMX

LATIN AMERICA AND CARIBBEAN REGIONAL WEATHER ROUNDUP
NATIONAL WEATHER SERVICE AUSTIN/SAN ANTONIO TX
1100 PM CST WED MAR 04 2015

NOTE: "FAIR" INDICATED FEW OR NO CLOUDS BELOW 12,000 FEET WITH NO
SIGNIFICANT WEATHER AND/OR OBSTRUCTIONS TO VISIBILITY.

BAJA CALIFORNIA

CITY           SKY/WX    TMP DP  RH WIND       PRES   REMARKS
LA PAZ         CLEAR     66  52  59 NE8       30.07
MEXICALI       CLEAR     55  41  58 E6        30.15
S.J. DEL CABO  CLEAR     64  52  63 W6        30.04S
TIJUANA        CLEAR     55  48  76 CALM      30.17R

NORTHWESTERN MEXICO

CITY           SKY/WX    TMP DP  RH WIND       PRES   REMARKS
CULIACAN       CLEAR     66  61  82 CALM      30.00
DURANGO        MOCLDY    54  39  58 SE7       30.24R
HERMOSILLO     CLEAR     64  48  55 CALM      30.09
LOS MOCHIS       N/A    N/A N/A N/A MISG        N/A

NORTHEASTERN MEXICO

CITY           SKY/WX    TMP DP  RH WIND       PRES   REMARKS
CHIHUAHUA      PTCLDY    48  32  53 N13       30.15  WCI  43
MONTERREY      MOCLDY    68  63  83 W9        29.89R
REYNOSA        PTCLDY    68  64  88 E6        29.85
SALTILLO       MOCLDY    66  50  55 CALM      30.04R
TORREON        MOCLDY    75  36  23 SW12      30.01S
CD. VICTORIA   PTCLDY    70  68  94 NW6       29.85

WESTERN MEXICO

CITY           SKY/WX    TMP DP  RH WIND       PRES   REMARKS
AGUASCALIENTES CLOUDY    57  45  62 SW6       30.26
DEL BAJIO      MOCLDY    66  41  39 NW14      30.29S
GUADALAJARA    CLOUDY    64  43  45 S3        30.20
MAZATLAN       MOCLDY    66  55  68 NW9       29.96S
P. VALLARTA    CLOUDY    72  64  78 CALM      29.93S
ZACATECAS      CLEAR     55  36  47 CALM      30.28S

CENTRAL MEXICO

CITY           SKY/WX    TMP DP  RH WIND       PRES   REMARKS
MEXICO CITY    PTCLDY    66  41  39 NE8       30.28R
MORELIA        PTCLDY    64  41  42 CALM      30.23
PUEBLA         CLEAR     57  41  54 NW7       30.27R
S. LUIS POTOSI MOCLDY    70  39  32 NW18      30.18R
TAMPICO        PTCLDY    70  68  94 SE9       29.83R
TOLUCA         PTCLDY    52  36  54 N6        30.36S

SOUTHERN MEXICO

CITY           SKY/WX    TMP DP  RH WIND       PRES   REMARKS
ACAPULCO       PTCLDY    77  73  88 NW3       29.88S
VERACRUZ       CLEAR     70  68  94 NW3       29.81S FOG

YUCATAN PENINSULA

CITY           SKY/WX    TMP DP  RH WIND       PRES   REMARKS
CAMPECHE       CLEAR     81  66  61 SE12G23   29.86F
CANCUN         PTCLDY    79  72  78 SE15      29.99F
COZUMEL        PTCLDY    72  72 100 SE8       29.98F
MERIDA         CLEAR     79  68  69 SE17      29.93S
TAPACHULA      MOCLDY    81  77  89 CALM      29.90S
TUX. GUTIERREZ CLEAR     73  59  60 W3        29.92R
VILLAHERMOSA   CLEAR     77  72  83 E7        29.81F

CENTRAL AMERICA

CITY           SKY/WX    TMP DP  RH WIND       PRES   REMARKS
MANAGUA        PTCLDY    79  68  69 E14       29.86S

CARIBBEAN

CITY           SKY/WX    TMP DP  RH WIND       PRES   REMARKS
ARUBA          PTCLDY    79  73  83 E21       29.92F
CURACAO        MOCLDY    79  73  83 E15       29.94F
KINGSTON       PTCLDY    79  68  69 NE3       30.00S
NASSAU         PTCLDY    75  70  83 SE7       30.16F
SAN JUAN       PTCLDY    77  70  78 E15       30.11F
SANTO DOMINGO  PTCLDY    73  68  83 N6        30.09F
ST. MAARTEN    PTCLDY    77  64  65 E20       30.09S

$$




USA.gov is the U.S. government's official web portal to all federal, state and local government web resources and services.